TimePDT,TemperatureF,Dew PointF,Humidity,Sea Level PressureIn,VisibilityMPH,Wind Direction,Wind SpeedMPH,Gust SpeedMPH,PrecipitationIn,Events,Conditions,WindDirDegrees,DateUTC
12:53 AM,36.0,21.0,55,30.37,10.0,NE,10.4,-,N/A,,Clear,40,2014-03-12 07:53:00
1:53 AM,36.0,21.0,55,30.36,10.0,North,4.6,-,N/A,,Clear,350,2014-03-12 08:53:00
2:53 AM,25.0,17.1,72,30.38,10.0,South,3.5,-,N/A,,Clear,190,2014-03-12 09:53:00
3:53 AM,32.0,19.9,61,30.36,10.0,NNE,12.7,-,N/A,,Clear,20,2014-03-12 10:53:00
4:53 AM,33.1,21.9,64,30.37,10.0,NNE,11.5,-,N/A,,Clear,20,2014-03-12 11:53:00
5:53 AM,33.1,21.9,64,30.37,10.0,NNE,15.0,-,N/A,,Clear,20,2014-03-12 12:53:00
6:53 AM,32.0,21.9,66,30.39,10.0,NNE,9.2,-,N/A,,Clear,30,2014-03-12 13:53:00
7:53 AM,35.1,23.0,61,30.39,10.0,NNE,15.0,-,N/A,,Clear,20,2014-03-12 14:53:00
8:53 AM,37.0,24.1,59,30.40,10.0,NNE,16.1,-,N/A,,Clear,30,2014-03-12 15:53:00
9:53 AM,43.0,25.0,49,30.39,10.0,NE,13.8,-,N/A,,Clear,40,2014-03-12 16:53:00
10:53 AM,48.0,23.0,37,30.37,10.0,NE,12.7,-,N/A,,Clear,40,2014-03-12 17:53:00
11:53 AM,51.1,19.0,28,30.34,10.0,NE,8.1,17.3,N/A,,Clear,40,2014-03-12 18:53:00
12:53 PM,54.0,17.1,23,30.30,10.0,East,12.7,21.9,N/A,,Clear,80,2014-03-12 19:53:00
1:53 PM,55.0,17.1,23,30.26,10.0,North,8.1,18.4,N/A,,Clear,10,2014-03-12 20:53:00
2:53 PM,55.9,14.0,19,30.24,10.0,North,6.9,-,N/A,,Clear,10,2014-03-12 21:53:00
3:53 PM,57.9,12.0,16,30.20,10.0,NW,10.4,-,N/A,,Clear,320,2014-03-12 22:53:00
4:53 PM,57.9,12.0,16,30.17,10.0,NNE,10.4,-,N/A,,Clear,20,2014-03-12 23:53:00
5:53 PM,57.9,12.0,16,30.15,10.0,NNE,12.7,-,N/A,,Clear,20,2014-03-13 00:53:00
6:53 PM,53.1,15.1,22,30.15,10.0,NNE,6.9,-,N/A,,Clear,20,2014-03-13 01:53:00
7:53 PM,48.0,15.1,27,30.16,10.0,North,8.1,-,N/A,,Clear,350,2014-03-13 02:53:00
8:53 PM,46.9,15.1,28,30.17,10.0,NNE,11.5,-,N/A,,Clear,30,2014-03-13 03:53:00
9:53 PM,45.0,17.1,33,30.17,10.0,NE,10.4,-,N/A,,Clear,40,2014-03-13 04:53:00
10:53 PM,39.9,18.0,41,30.17,10.0,NE,4.6,-,N/A,,Clear,50,2014-03-13 05:53:00
11:53 PM,42.1,19.0,40,30.15,10.0,NNE,10.4,-,N/A,,Clear,30,2014-03-13 06:53:00